Sterling, IL

9:04 PM CST on November 16, 2019 (GMT -0600)
Whiteside County-Bittorf

Weather History for KSQI - July, 2019

Change the Weather History Date:

Wednesday, July 31, 2019

  Actual Average Record
Temperature  
Mean Temperature 66 °F -  
Max Temperature 81 °F 81 °F 96 °F (2006)
Min Temperature 55 °F 60 °F 48 °F (1997)
Cooling Degree Days 2    
Growing Degree Days 16 (Base 50)    
Moisture  
Dew Point 58 °F    
Average Humidity 74    
Maximum Humidity 97    
Minimum Humidity 46    
Precipitation  
Precipitation 0.00 in - - ()
Sea Level Pressure  
Sea Level Pressure 29.76 in    
Wind  
Wind Speed 3 mph (East)    
Max Wind Speed 9 mph    
Max Gust Speed -    
Visibility 10 miles    
Events      
Averages and records for this station are not official NWS values.
T = Trace of Precipitation, MM = Missing Value Source: NWS Daily Summary

Daily Weather History Graph

Daily Weather History Graph

Search for Another Location

Airport or City:

Astronomy

Jul. 31, 2019 Rise Set
Actual Time 5:51 AM CDT 8:17 PM CDT
Civil Twilight 5:20 AM CDT 8:49 PM CDT
Nautical Twilight 4:41 AM CDT 9:28 PM CDT
Astronomical Twilight 3:57 AM CDT 10:11 PM CDT
Moon 5:03 AM CDT (7/31) 8:17 PM CDT (7/31)
Length of Visible Light 15h 29m
Length of Day
14h 26m
Waning Crescent, 0% of the Moon is Illuminated
Jul 31
Waning Crescent
Jul 31
New
Aug 7
First Quarter
Aug 15
Full
Aug 23
Last Quarter

Hourly Weather History & Observations

Time (CDT) Temp. Dew Point Humidity Pressure Visibility Wind Dir Wind Speed Gust Speed Precip Events Conditions
12:56 AM 59.0 °F 57.0 °F 93% 29.73 in 10.0 mi Calm Calm - N/A   Clear
1:56 AM 57.0 °F 55.9 °F 96% 29.73 in 10.0 mi East 3.5 mph - N/A   Clear
2:56 AM 57.0 °F 55.0 °F 93% 29.73 in 10.0 mi Calm Calm - N/A   Clear
3:56 AM 55.9 °F 55.0 °F 97% 29.75 in 10.0 mi Calm Calm - N/A   Clear
4:56 AM 57.0 °F 55.0 °F 93% 29.75 in 10.0 mi East 3.5 mph - N/A   Clear
5:56 AM 55.9 °F 55.0 °F 97% 29.76 in 10.0 mi East 4.6 mph - N/A   Clear
6:56 AM 59.0 °F 57.0 °F 93% 29.77 in 10.0 mi East 3.5 mph - N/A   Clear
7:56 AM 64.0 °F 61.0 °F 90% 29.79 in 10.0 mi East 3.5 mph - N/A   Clear
8:56 AM 69.1 °F 61.0 °F 75% 29.80 in 10.0 mi Calm Calm - N/A   Clear
9:56 AM 72.0 °F 60.1 °F 66% 29.80 in 10.0 mi Variable 3.5 mph - N/A   Clear
10:56 AM 73.0 °F 57.0 °F 57% 29.80 in 10.0 mi Calm Calm - N/A   Scattered Clouds
11:56 AM 78.1 °F 55.9 °F 46% 29.80 in 10.0 mi Variable 3.5 mph - N/A   Mostly Cloudy
12:56 PM 75.0 °F 55.9 °F 51% 29.80 in 10.0 mi East 5.8 mph - N/A   Mostly Cloudy
1:56 PM 77.0 °F 55.9 °F 48% 29.79 in 10.0 mi Variable 4.6 mph - N/A   Overcast
2:56 PM 78.1 °F 57.9 °F 50% 29.77 in 10.0 mi East 9.2 mph - N/A   Scattered Clouds
3:56 PM 78.1 °F 57.9 °F 50% 29.76 in 10.0 mi Variable 3.5 mph - N/A   Partly Cloudy
4:56 PM 78.1 °F 57.0 °F 48% 29.74 in 10.0 mi East 8.1 mph - N/A   Clear
5:56 PM 75.9 °F 59.0 °F 56% 29.73 in 10.0 mi East 5.8 mph - N/A   Clear
6:56 PM 75.0 °F 60.1 °F 60% 29.74 in 10.0 mi East 3.5 mph - N/A   Clear
7:56 PM 70.0 °F 60.1 °F 71% 29.75 in 10.0 mi Calm Calm - N/A   Clear
8:56 PM 64.9 °F 60.1 °F 84% 29.75 in 10.0 mi Calm Calm - N/A   Clear
9:56 PM 63.0 °F 59.0 °F 87% 29.77 in 10.0 mi Calm Calm - N/A   Mostly Cloudy
10:56 PM 64.0 °F 60.1 °F 87% 29.77 in 10.0 mi East 4.6 mph - N/A   Scattered Clouds
11:56 PM 62.1 °F 59.0 °F 90% 29.77 in 10.0 mi East 6.9 mph - N/A   Clear